This is the latest recevied weather packets stored in our database for station/object AC5JC-1. If no packets are shown the sender has not sent any weather packets the latest 10 day(s).
| Time | Temp. | Humidity | Pressure | Rain* | Wind** | Luminosity | Snow |
|---|---|---|---|---|---|---|---|
| 1777674398 | 17.78° C | 64% | 1016.1 hPa | 0 mm | - | 132 W/m² | - |
| 1777674058 | 17.78° C | 65% | 1016.2 hPa | 0 mm | - | 140 W/m² | - |
| 1777673435 | 17.78° C | 64% | 1015.9 hPa | 0 mm | - | 151 W/m² | - |
| 1777673164 | 17.78° C | 65% | 1015.9 hPa | 0 mm | - | 160 W/m² | - |
| 1777668934 | 17.22° C | 67% | 1017 hPa | 0 mm | - | 139 W/m² | - |
| 1777664745 | 16.67° C | 63% | 1017.1 hPa | 0 mm | - | 101 W/m² | - |
| 1777660552 | 16.67° C | 66% | 1016.8 hPa | 0 mm | - | 158 W/m² | - |
| 1777659035 | 17.22° C | 66% | 1017 hPa | 0 mm | - | 248 W/m² | - |
| 1777656036 | 17.22° C | 70% | 1017.6 hPa | 0.25 mm | - | 436 W/m² | - |
| 1777655786 | 17.78° C | 69% | 1017.6 hPa | 0.25 mm | - | 444 W/m² | - |
| 1777651278 | 15.56° C | 79% | 1018.2 hPa | 0 mm | - | 254 W/m² | - |
| 1777649735 | 15° C | 80% | 1018 hPa | 0 mm | - | 231 W/m² | - |
| 1777644654 | 13.89° C | 90% | 1018 hPa | 0 mm | - | 46 W/m² | - |
| 1777644330 | 13.89° C | 90% | 1017.8 hPa | 0 mm | - | 34 W/m² | - |
| 1777644073 | 13.89° C | 90% | 1017.6 hPa | 0 mm | - | 39 W/m² | - |
| 1777641673 | 13.89° C | 92% | 1017.1 hPa | 0 mm | - | 18 W/m² | - |
| 1777637449 | 13.89° C | 94% | 1017.1 hPa | 0 mm | - | 2 W/m² | - |
| 1777636553 | 13.89° C | 93% | 1016.4 hPa | 0 mm | - | 0 W/m² | - |
| 1777635979 | 13.89° C | 93% | 1015.9 hPa | 0 mm | - | 0 W/m² | - |
| 1777635338 | 13.89° C | 93% | 1015.9 hPa | 0 mm | - | 0 W/m² | - |
| 1777630281 | 13.89° C | 93% | 1016.6 hPa | 0 mm | - | 0 W/m² | - |
| 1777629984 | 13.89° C | 92% | 1016.5 hPa | 0 mm | - | 0 W/m² | - |
| 1777628746 | 13.89° C | 92% | 1016.3 hPa | 0 mm | - | 0 W/m² | - |
| 1777628426 | 13.89° C | 92% | 1016.3 hPa | 0 mm | - | 0 W/m² | - |
| 1777627869 | 13.89° C | 92% | 1016.4 hPa | 0 mm | - | 0 W/m² | - |
* Rain latest hour (hover to see other rain measurements)
** Current wind speed in m/s (hover to see current wind gust speed)